GFSSGP_250_rhum_096.txt.gz
RH
58 55 52 50 42 42 45 33 40 56 74 67 65 65 54 46 42 40 33 32 29 26 25 22 20 16 12 10 9 9 9 9 9 10 22 44 43 24 23 20 9 8 9 10 9 10 12 15 20
71 81 59 47 54 78 97 63 59 84 98 83 79 70 63 50 52 43 39 35 34 32 29 26 18 15 13 11 9 9 10 10 9 10 15 22 22 15 14 10 9 8 9 10 10 10 10 11 13
80 79 66 70 61 92 100 100 93 92 100 86 72 69 92 68 59 46 41 36 36 33 28 21 18 17 15 12 11 11 12 13 12 12 14 32 90 90 72 42 30 29 26 24 25 20 16 16 15
70 65 56 75 81 97 85 82 100 96 99 83 67 83 100 98 72 46 44 35 33 32 27 22 20 18 17 16 15 16 16 15 17 18 42 38 39 100 100 93 98 100 100 100 100 100 100 100 100
40 70 68 80 91 93 67 80 100 100 90 72 64 86 98 91 66 48 41 36 34 28 26 22 20 18 19 19 17 18 18 19 21 35 63 80 30 14 29 65 86 100 100 100 100 100 100 100 100
48 60 65 76 99 100 72 54 99 100 86 72 100 100 98 79 55 48 42 38 29 31 32 28 21 20 19 19 20 21 22 22 21 25 28 76 73 53 25 23 39 92 100 100 100 100 100 100 100
73 70 68 68 96 84 65 42 62 95 83 83 100 100 100 72 54 50 43 35 36 40 38 34 25 22 19 22 24 23 26 26 20 23 36 50 39 46 40 27 16 62 100 100 100 100 100 100 100
61 76 60 66 80 86 76 47 57 72 81 72 100 100 89 69 63 53 46 42 44 49 49 39 28 23 22 22 22 25 31 31 20 15 15 37 86 40 23 36 28 16 100 86 100 100 100 100 100
53 46 69 99 100 97 64 49 69 73 82 100 100 100 98 79 74 74 66 54 56 63 57 38 26 28 23 26 24 27 35 26 18 14 13 17 46 31 25 44 51 30 58 100 100 100 100 100 100
63 56 71 100 100 76 60 68 78 84 93 90 100 100 100 100 98 100 99 83 79 75 52 34 29 24 28 30 26 26 36 26 17 14 12 13 22 36 29 46 78 69 46 100 100 100 100 100 100
85 75 79 75 95 74 51 60 67 90 86 100 100 100 100 100 100 100 100 99 82 65 46 34 28 27 28 36 30 26 36 30 20 16 15 14 22 34 30 46 86 76 83 92 100 100 100 100 100
91 91 81 89 83 75 89 58 63 82 96 100 100 98 100 100 100 100 100 94 82 53 40 33 27 32 28 38 35 26 34 36 20 16 16 21 42 41 43 50 99 96 95 100 100 100 100 100 100
68 94 74 92 99 79 84 100 79 54 72 100 100 100 100 100 100 100 100 96 71 53 39 30 33 37 36 36 37 28 32 37 25 15 15 22 53 79 82 73 75 100 94 100 100 100 100 99 100
50 68 86 79 98 88 66 78 93 79 91 64 78 84 100 100 100 100 100 80 58 52 42 34 43 40 45 44 34 29 30 35 28 15 16 31 72 74 64 78 68 86 100 100 100 100 100 92 100
54 70 63 89 93 92 100 78 64 100 90 63 83 88 88 85 92 82 74 68 68 75 45 43 45 40 55 42 36 30 31 36 28 17 20 71 84 72 83 93 82 58 100 100 100 100 100 100 93
53 79 72 93 78 90 70 88 89 66 85 60 69 81 90 79 70 75 74 87 82 69 52 48 48 49 54 43 38 35 32 38 29 17 40 96 86 71 100 99 88 59 100 100 100 100 100 96 80
53 70 84 83 95 100 100 100 100 66 57 58 67 60 67 76 61 57 84 82 68 65 56 55 67 56 57 40 38 36 35 40 25 16 34 100 99 78 100 100 98 56 100 100 100 100 100 83 92
69 76 96 99 100 100 100 100 100 96 78 71 58 63 64 86 100 96 85 71 67 69 63 51 68 71 66 42 38 36 38 40 23 16 38 100 95 74 100 100 93 38 100 100 100 100 84 69 100
86 97 100 97 90 93 100 90 69 72 61 80 100 65 49 54 63 58 46 48 55 100 100 100 99 74 51 45 44 37 43 42 30 16 41 100 82 75 100 100 78 48 100 100 100 100 98 84 100
77 92 99 100 87 93 100 100 100 79 63 72 85 79 63 54 51 60 57 48 40 47 98 100 83 69 52 46 46 38 45 44 40 17 55 99 93 62 100 100 76 100 100 100 100 100 83 100 100
69 80 100 100 100 100 100 100 100 100 83 68 65 61 62 70 52 54 62 48 36 48 52 68 82 76 56 52 50 40 47 45 37 17 77 100 95 81 100 100 100 100 100 100 97 100 100 100 100
56 85 100 100 100 100 100 89 80 100 100 80 72 59 68 62 65 75 64 46 40 47 61 66 80 79 58 54 54 44 49 46 35 19 96 100 98 81 100 99 100 100 100 100 100 100 85 97 100
84 90 100 100 99 98 100 100 100 92 76 70 87 84 67 69 79 73 63 45 43 50 62 73 96 78 59 62 49 46 50 48 31 18 95 100 100 96 100 100 100 100 100 100 100 100 100 100 100
63 87 85 88 83 82 87 93 100 96 97 80 66 65 64 56 61 65 67 48 46 62 58 79 99 77 60 65 45 50 51 51 33 22 36 100 87 93 100 100 100 100 100 100 97 100 78 93 100
71 70 84 78 64 62 76 94 100 99 100 100 88 75 68 68 73 74 59 49 61 66 70 89 89 76 76 62 44 55 52 54 32 30 32 96 100 71 96 97 100 100 100 100 100 100 100 99 93
90 71 76 85 90 91 100 100 100 88 80 88 92 91 85 82 86 68 61 54 77 83 80 84 88 84 86 64 47 58 54 55 46 29 39 39 99 100 84 95 86 87 100 100 100 100 100 98 90
98 100 100 100 100 100 98 96 86 83 80 86 91 97 96 94 79 60 59 61 76 82 100 100 99 83 70 68 53 60 57 56 66 32 51 35 52 90 100 100 100 100 100 96 88 66 56 58 63
100 100 100 100 96 87 87 93 94 84 83 92 100 100 100 94 64 63 71 85 82 93 83 74 74 72 66 64 55 62 60 61 63 67 30 36 40 35 79 100 100 100 100 100 100 100 100 100 100
100 100 100 100 100 100 100 98 90 79 80 80 75 80 79 69 79 99 94 100 99 100 85 75 75 72 65 60 59 61 66 65 66 71 60 33 34 29 26 37 69 85 96 99 100 100 100 100 99
100 100 100 100 100 100 100 96 87 73 66 67 60 65 84 94 94 96 95 96 87 82 75 68 68 74 65 66 59 59 72 61 73 77 78 45 35 30 26 25 23 26 34 45 44 37 35 30 25

GFSSGP_250_rhum_099.txt.gz
RH
54 54 50 41 44 36 44 50 41 36 36 38 38 38 40 41 42 39 41 42 37 38 33 30 26 22 19 16 13 12 11 10 8 8 8 8 25 29 44 53 51 30 19 11 10 10 9 10 11
62 55 50 45 50 53 68 67 42 47 43 42 47 56 59 68 56 56 59 52 47 49 41 35 29 28 23 19 17 14 13 11 10 9 8 8 9 12 33 41 52 41 27 20 19 12 10 10 10
36 38 38 45 66 68 94 75 59 48 68 100 100 100 100 100 82 65 58 62 71 58 46 42 32 30 24 21 18 15 13 12 13 14 11 11 13 40 83 78 96 96 50 35 48 44 41 28 27
22 23 28 24 40 100 100 92 70 49 60 98 100 100 100 97 83 68 68 99 98 78 52 43 35 29 25 22 19 17 15 13 19 26 28 32 61 87 100 73 98 100 100 100 100 100 100 100 100
23 19 18 19 34 72 74 76 53 54 60 80 99 100 100 91 86 74 68 92 97 78 54 44 35 30 28 26 21 18 15 17 24 42 49 40 24 38 63 87 96 100 100 100 100 100 100 100 100
30 28 20 26 54 100 87 86 73 85 63 60 100 100 100 97 84 74 85 91 90 71 52 46 36 32 30 31 23 19 17 15 17 20 39 39 33 51 74 48 64 99 88 100 100 100 100 100 100
45 45 30 33 51 80 97 60 44 59 79 78 69 100 100 92 81 83 96 97 90 65 51 46 38 36 33 31 24 21 19 15 18 23 31 15 18 38 38 49 51 29 100 99 98 100 100 100 100
62 48 34 35 70 100 90 59 42 44 54 62 84 71 100 96 88 100 100 96 89 63 56 47 44 42 37 31 28 23 21 19 19 28 28 24 29 17 61 65 41 45 40 100 89 100 100 100 100
63 51 56 82 76 72 86 62 25 39 49 64 78 92 100 98 86 98 100 94 76 66 62 63 57 45 43 34 32 23 22 23 23 32 28 54 47 50 29 28 18 18 34 92 100 100 100 100 100
46 52 59 92 90 67 66 39 22 29 48 61 86 100 100 100 100 100 100 92 80 78 96 99 81 50 43 38 30 23 23 28 27 33 21 29 44 52 88 52 43 27 38 54 100 100 100 100 100
40 38 57 80 85 77 68 33 23 29 47 63 100 99 100 100 100 100 100 83 85 100 100 100 92 62 45 41 28 25 24 28 27 31 27 24 26 45 75 79 82 69 70 55 97 100 100 100 100
58 40 42 54 70 80 85 52 32 32 56 54 82 100 100 100 100 100 100 81 94 100 100 100 89 66 50 41 28 25 26 30 27 31 35 29 18 42 57 75 79 66 66 72 56 100 100 100 100
71 58 42 48 53 76 93 69 45 44 45 41 57 66 100 100 99 99 99 99 100 100 100 100 97 69 54 41 30 25 27 35 30 31 36 21 13 22 60 73 72 62 70 100 85 98 100 100 100
83 68 49 37 44 58 86 86 76 83 64 94 55 51 66 99 100 100 100 100 100 100 100 98 80 61 52 41 31 27 26 37 33 32 36 23 15 16 38 69 80 68 70 100 100 99 100 100 100
69 64 62 43 46 50 73 92 84 94 92 59 82 78 50 55 87 100 100 100 100 100 100 80 67 57 46 42 32 28 28 40 33 32 37 25 16 21 48 74 77 69 73 97 100 100 100 100 100
66 72 55 55 42 47 55 72 93 89 86 84 51 64 71 64 65 69 92 100 100 99 90 74 62 63 50 38 35 31 32 45 36 33 38 25 16 27 65 80 75 70 76 84 100 100 100 100 95
54 53 57 63 55 46 66 55 80 100 84 80 85 48 56 87 68 69 98 100 92 70 68 64 60 53 44 36 39 41 61 50 37 33 40 21 15 24 100 71 87 92 76 70 97 100 100 100 94
31 43 50 64 72 57 46 81 72 78 78 72 69 66 69 49 75 85 88 92 82 72 71 64 58 57 42 39 65 72 89 47 38 34 39 24 16 22 94 84 100 100 100 75 92 100 100 100 99
37 46 68 73 77 82 69 100 88 97 93 75 90 87 100 100 63 46 40 52 75 92 70 65 49 47 49 81 100 96 94 50 40 36 39 30 16 32 86 77 99 99 98 92 96 100 100 100 100
26 38 41 51 66 76 87 100 100 91 89 87 99 100 100 100 86 83 49 52 54 59 55 48 45 39 42 34 56 73 63 53 41 37 41 27 17 58 79 74 90 100 100 87 100 100 100 100 100
23 29 39 40 61 70 96 99 100 100 100 100 100 100 100 81 72 70 75 55 52 49 58 51 38 41 38 32 33 35 48 62 46 39 42 24 16 82 66 86 99 100 100 85 97 100 100 99 97
24 33 37 43 47 80 75 100 100 100 100 94 100 100 100 100 82 50 52 59 50 50 62 80 68 51 42 34 32 34 56 63 51 42 44 26 17 100 63 99 100 100 87 66 100 100 100 100 100
27 40 41 42 52 66 62 85 100 100 100 100 100 100 100 100 85 77 72 64 62 58 65 64 57 59 53 36 36 44 58 59 54 43 46 27 49 100 65 100 100 100 100 100 100 100 100 100 100
16 29 41 47 46 54 63 72 100 100 100 100 100 100 100 100 100 100 100 88 78 76 75 70 71 68 54 48 41 52 66 59 49 47 46 34 82 100 73 100 100 100 100 100 90 89 100 100 100
18 23 37 48 50 58 68 98 100 100 100 100 100 100 100 100 93 98 86 88 91 94 88 88 76 72 59 51 48 56 82 59 52 50 47 32 96 100 87 92 100 100 82 100 100 100 100 100 99
29 39 53 58 63 67 74 92 100 95 100 100 100 100 100 100 100 95 100 100 99 89 92 86 75 80 60 51 56 66 80 61 51 52 47 34 67 100 81 98 100 100 100 100 100 100 100 100 100
46 49 74 82 100 100 100 100 100 100 100 100 100 100 96 100 98 90 100 100 100 95 91 91 79 70 60 50 73 79 94 68 50 54 49 38 39 100 100 94 100 100 100 100 100 100 100 100 100
74 100 86 78 100 100 100 98 100 100 100 100 99 95 90 97 100 100 100 97 92 90 92 96 87 70 62 60 75 85 94 78 56 55 51 46 41 48 100 98 75 96 100 100 100 100 100 100 100
89 100 100 100 98 99 90 92 100 99 97 92 89 88 95 99 95 96 100 93 80 93 100 92 79 73 73 77 86 100 99 64 56 58 52 56 44 36 61 99 100 91 59 81 89 82 94 100 97
100 100 100 100 100 100 100 100 100 100 98 94 89 88 85 89 93 96 97 92 98 100 100 92 88 99 93 71 65 63 73 55 50 59 59 51 59 37 38 46 69 100 100 100 99 92 89 88 98

GFSSGP_250_rhum_102.txt.gz
RH
54 51 43 33 35 36 40 52 49 41 31 33 36 32 30 21 22 21 24 24 27 30 30 36 35 28 28 27 25 22 19 16 14 11 15 20 14 9 10 7 19 52 47 62 71 66 52 21 13
58 53 62 48 46 55 64 68 62 38 32 52 54 44 52 42 24 23 25 33 51 55 46 49 42 39 44 39 33 25 22 19 16 12 12 20 24 16 10 12 11 15 83 88 72 64 35 26 20
59 54 51 38 39 44 43 44 44 33 46 62 69 72 75 66 95 77 76 78 97 79 60 56 60 72 66 51 37 29 25 21 18 15 14 16 40 46 61 42 69 79 94 100 100 100 100 100 100
39 38 29 29 25 24 25 30 24 24 29 73 93 91 93 66 76 100 100 85 98 89 65 61 68 80 75 55 41 31 27 23 19 15 21 25 58 54 36 74 100 75 84 100 100 100 100 100 100
38 38 26 24 26 30 26 22 22 16 21 29 86 97 83 72 61 100 100 100 99 84 69 65 70 76 75 56 45 33 29 25 21 22 17 14 15 33 60 53 100 87 99 100 97 86 100 100 100
45 44 40 39 36 36 30 27 22 20 28 31 46 56 54 57 55 78 100 96 87 80 74 87 87 89 79 54 44 35 31 27 27 23 18 15 14 14 24 38 87 100 88 100 100 100 100 100 100
44 47 51 50 39 43 46 41 25 45 46 62 100 100 100 51 68 84 100 100 100 79 79 88 100 98 78 54 46 37 33 29 28 21 18 17 17 26 35 37 58 74 100 100 98 82 100 100 100
40 37 42 49 51 53 66 60 30 25 26 30 42 99 96 35 97 96 75 100 100 84 96 100 100 92 73 58 50 44 31 31 30 21 19 21 18 24 33 34 52 66 72 100 100 100 82 100 100
68 48 41 43 44 48 71 63 41 37 27 30 31 75 51 56 55 81 75 83 99 96 96 100 99 79 66 64 55 44 37 32 32 22 21 23 20 58 83 53 38 62 67 53 98 100 100 100 100
100 68 60 59 46 45 62 59 57 54 34 32 34 66 51 69 61 94 84 72 67 61 63 100 100 89 88 89 72 54 44 35 33 22 24 24 20 38 58 65 60 42 55 64 52 100 100 100 100
100 100 100 82 62 47 43 56 58 57 39 37 28 53 64 78 72 97 100 100 100 100 100 100 100 100 100 100 81 62 45 39 39 26 25 25 23 24 70 67 79 59 39 49 60 70 100 100 100
76 90 100 100 73 76 49 47 41 47 47 49 36 39 50 82 100 86 70 72 70 68 72 100 100 100 100 100 88 80 52 46 39 29 26 27 23 29 43 38 53 63 53 52 36 60 98 100 100
54 70 100 92 88 67 58 61 47 47 59 61 47 36 32 84 79 99 100 100 100 83 89 100 100 100 100 92 92 78 66 46 40 29 30 33 26 25 34 50 30 54 55 58 61 59 69 100 100
38 46 69 100 99 96 73 56 53 43 42 62 64 56 38 47 58 51 81 97 98 96 92 94 100 100 100 91 92 74 54 48 39 30 30 37 30 26 31 46 39 69 75 87 85 79 62 81 100
36 33 35 62 100 100 100 65 56 66 48 49 76 78 54 45 65 57 70 66 74 79 96 100 100 100 98 93 81 69 57 46 40 30 35 56 30 27 30 21 33 65 70 85 83 100 85 87 100
29 28 29 39 94 100 100 58 69 69 59 48 69 77 76 61 84 93 91 85 74 70 61 97 100 98 100 98 81 57 44 39 36 35 43 73 36 28 33 20 15 63 71 72 88 93 100 89 100
20 18 19 36 44 95 100 64 100 87 65 49 67 78 69 86 64 75 92 96 99 78 44 41 96 72 79 72 58 41 35 34 36 50 76 91 42 30 35 21 15 57 61 59 79 88 100 100 100
14 18 21 26 67 99 99 69 100 98 72 64 50 66 76 68 77 52 63 72 83 63 46 43 82 76 59 61 41 35 34 32 36 54 99 92 50 33 35 28 17 58 68 68 71 76 91 95 100
14 17 21 24 29 79 100 82 100 97 91 69 52 48 73 76 64 97 80 57 58 54 71 64 54 66 47 43 35 37 36 42 35 28 36 92 46 34 35 30 18 57 95 72 74 97 80 100 100
12 13 15 15 21 34 86 87 100 95 90 75 67 48 92 78 76 94 74 66 94 100 73 62 38 41 42 42 39 38 37 33 31 28 31 49 43 35 36 26 18 92 95 74 98 100 86 79 100
8 11 15 16 23 27 37 61 66 88 93 83 71 74 87 86 79 66 65 62 100 100 100 98 84 58 49 46 44 45 44 40 39 30 34 52 45 37 36 24 33 97 85 81 100 100 96 83 100
6 8 14 20 22 29 30 44 46 61 95 99 100 95 96 100 89 71 84 100 100 100 100 96 100 76 52 63 53 58 52 46 48 39 42 63 48 38 37 20 88 90 78 100 100 100 100 93 100
7 9 13 16 22 32 28 37 43 56 95 93 100 100 100 100 100 100 100 100 100 100 100 88 68 63 56 63 58 63 60 60 57 38 51 52 52 39 32 46 100 83 100 99 100 100 100 100 100
7 7 11 14 20 26 32 33 42 54 83 96 100 100 100 100 100 100 100 100 100 100 100 100 96 93 68 77 72 74 81 69 57 42 51 54 51 42 28 81 100 79 100 100 100 91 100 100 80
6 9 11 13 20 35 36 42 46 55 82 79 82 92 100 100 100 100 100 100 100 100 100 100 100 99 87 85 95 90 83 79 62 45 54 60 49 45 30 99 97 79 100 100 100 100 100 100 92
9 10 13 20 29 43 49 49 44 54 59 63 58 70 94 100 100 100 100 100 100 100 100 100 98 99 100 96 93 96 91 82 66 48 55 63 49 45 31 100 94 89 100 100 100 100 100 100 100
11 13 16 23 34 50 79 68 62 68 76 51 62 69 85 100 100 100 100 100 100 100 100 100 100 100 100 100 99 94 88 86 67 51 60 60 50 45 33 100 95 100 100 100 100 100 100 100 100
18 21 27 28 39 88 93 91 95 98 98 65 82 88 82 92 100 100 100 100 100 100 100 100 100 100 100 100 100 93 92 91 70 54 53 62 53 48 38 82 100 100 100 94 97 100 100 100 100
38 57 52 62 59 90 64 92 100 95 96 81 73 73 93 100 100 100 100 100 100 100 100 100 100 100 100 100 88 80 83 98 72 67 77 73 49 50 44 42 100 100 100 100 100 100 100 100 100
100 100 100 100 100 100 100 100 100 100 100 97 100 99 96 88 90 84 100 100 98 100 100 100 100 100 100 93 78 87 100 91 72 78 100 99 50 52 46 39 84 100 100 100 100 100 100 100 100

GFSSGP_250_rhum_105.txt.gz
RH
59 56 40 34 31 38 48 60 40 38 30 26 35 43 37 26 19 20 24 22 22 23 22 20 19 19 23 21 22 25 31 34 28 23 18 15 13 13 24 29 25 17 22 10 61 79 61 64 68
69 62 67 51 42 45 63 72 52 45 36 34 48 51 38 21 25 27 34 26 28 25 34 38 36 43 40 37 31 36 53 46 33 27 22 20 15 15 29 53 44 41 36 99 100 100 100 99 82
68 50 33 28 32 27 35 48 47 34 30 31 36 39 32 20 24 29 48 34 49 57 77 77 72 65 52 44 42 42 54 50 39 29 25 23 17 20 30 62 68 100 100 100 94 98 97 100 100
39 31 35 32 30 30 28 36 26 23 21 22 21 22 22 22 20 31 39 68 71 62 100 100 91 82 61 53 50 45 56 56 40 32 30 26 20 21 19 44 68 100 100 89 88 100 100 100 99
29 32 34 36 35 38 45 45 37 26 19 20 22 28 21 19 19 22 39 80 51 71 100 100 100 90 65 61 64 59 73 57 44 34 33 25 22 16 19 20 30 89 100 73 76 90 100 94 87
33 33 31 32 38 39 40 49 52 40 26 19 21 34 27 17 38 38 41 59 70 72 100 98 88 83 71 62 59 61 70 60 48 40 30 28 23 16 19 38 52 92 100 99 93 80 100 92 95
68 65 44 35 41 39 44 50 55 55 36 28 26 25 39 23 44 74 100 100 77 59 67 100 100 100 82 62 88 88 68 56 51 46 28 30 26 18 20 42 61 68 100 100 100 85 100 84 98
100 88 69 50 53 51 56 52 54 56 48 43 38 26 40 50 41 94 100 100 100 85 70 91 100 100 80 88 78 68 65 56 52 41 40 35 31 25 17 35 60 54 74 100 100 100 89 90 64
87 92 100 100 87 94 90 70 54 45 45 43 51 28 29 45 28 41 75 50 85 96 87 79 85 99 92 67 65 93 70 54 54 52 45 42 29 30 21 20 66 66 58 72 100 100 100 86 91
82 59 61 81 93 73 100 100 70 58 49 46 50 42 34 45 35 33 66 46 62 70 60 60 76 66 63 70 98 87 86 100 72 60 46 46 37 34 24 19 45 76 74 60 66 92 100 100 96
78 64 69 57 69 75 78 60 93 77 52 51 54 46 49 61 50 35 46 48 54 57 100 100 100 100 100 100 98 95 93 100 91 75 65 56 43 32 25 20 30 83 63 59 66 72 88 100 100
53 50 52 49 44 56 64 65 56 83 76 60 48 47 52 60 74 45 35 46 39 46 68 80 96 89 100 100 100 100 100 94 87 94 83 56 42 32 28 26 21 32 50 47 50 61 74 87 91
43 54 41 38 32 31 36 46 60 59 71 61 59 56 41 50 84 67 45 31 44 78 90 93 100 100 100 100 100 88 100 92 94 78 68 52 41 35 30 30 24 25 44 34 27 54 74 75 90
51 40 36 34 33 38 33 36 47 42 48 43 47 55 58 47 84 83 59 42 30 50 85 100 100 96 99 100 100 97 100 100 84 83 61 42 32 35 33 32 26 26 31 33 32 66 69 74 56
32 29 36 35 34 30 46 34 27 39 55 44 46 43 53 48 55 92 81 53 39 30 47 62 95 100 100 100 100 100 100 100 85 57 46 34 32 35 42 38 38 30 27 22 67 74 85 96 89
22 19 19 24 25 26 38 25 28 35 51 52 56 71 90 68 47 78 88 70 50 36 39 62 59 54 94 100 100 100 92 75 58 48 35 27 29 54 93 56 48 35 33 15 56 76 86 97 100
16 15 16 16 20 23 37 28 39 51 40 45 60 71 74 60 56 55 94 92 61 48 39 65 98 76 57 66 57 65 57 50 49 40 28 28 28 30 35 40 36 39 35 18 39 75 83 94 99
12 13 13 12 16 23 24 18 24 44 45 53 79 77 68 57 59 58 90 100 76 74 53 45 76 100 71 50 67 60 41 38 40 34 35 32 35 33 30 35 34 38 35 21 35 63 65 79 95
7 8 9 10 13 14 13 10 14 22 44 42 78 100 92 59 63 59 74 94 100 86 60 42 47 76 65 35 52 54 41 40 37 39 39 36 36 33 31 32 33 39 36 23 22 61 66 64 76
7 7 7 9 12 10 12 11 14 21 40 42 79 94 100 87 54 59 61 98 100 92 62 48 47 69 74 55 55 53 48 45 41 37 43 44 41 42 34 34 35 42 38 24 38 88 84 86 87
6 7 9 10 10 11 14 11 14 18 25 33 69 100 100 83 64 59 63 80 100 98 81 73 74 85 96 100 76 64 55 62 49 42 43 50 47 44 36 42 47 46 40 24 83 98 72 81 100
5 6 7 8 9 12 14 14 17 20 21 33 52 85 100 100 90 55 61 55 57 99 99 94 83 72 100 100 100 97 66 70 54 46 50 60 50 49 37 40 46 43 38 50 100 100 77 64 96
5 4 5 6 9 10 15 16 22 22 24 34 65 100 100 99 64 58 60 65 61 100 100 100 100 100 100 100 100 100 69 74 63 55 69 69 64 53 38 40 48 42 36 100 100 92 100 100 100
4 5 6 7 7 8 12 18 22 25 35 40 56 91 96 90 58 75 94 93 93 99 100 100 100 100 100 99 100 95 63 97 90 70 73 74 74 56 38 36 49 42 47 100 100 100 100 100 100
9 8 8 8 7 11 14 21 26 32 40 44 51 84 82 77 73 80 94 100 100 100 100 100 100 100 100 100 100 100 94 100 97 83 92 82 73 56 42 35 48 42 72 100 100 98 100 100 100
10 10 11 12 14 14 16 27 32 34 41 43 40 46 57 77 86 88 95 100 100 100 100 97 100 100 100 100 100 100 100 100 97 97 98 82 66 54 46 36 47 42 100 100 100 100 100 100 100
10 12 11 11 12 13 18 28 31 53 59 51 40 47 48 52 62 77 87 84 100 100 100 100 95 100 100 100 100 100 100 99 100 100 98 91 73 56 56 38 45 42 100 100 100 100 100 100 100
13 14 12 15 19 23 28 34 48 71 73 100 77 43 50 53 57 72 80 91 100 100 100 100 100 93 98 100 100 100 93 76 93 100 100 99 72 62 63 42 43 40 80 100 100 100 98 100 100
19 18 18 24 30 100 96 85 76 100 100 100 100 89 50 53 69 91 96 79 88 88 89 100 100 100 100 100 81 69 82 73 72 100 100 97 74 74 71 48 41 42 61 100 100 100 100 97 100
21 20 25 42 98 100 100 100 100 100 100 100 100 96 84 63 54 70 91 88 77 86 100 100 100 100 100 99 84 83 100 90 87 100 100 87 82 82 76 74 50 47 51 82 100 100 100 100 95

GFSSGP_250_rhum_108.txt.gz
RH
47 44 43 37 31 31 40 48 44 36 26 27 25 25 27 23 18 23 24 21 21 18 16 19 18 18 19 21 26 22 22 24 20 25 28 26 22 21 15 16 15 42 42 57 76 100 100 100 100
58 50 44 42 36 38 62 60 59 41 32 29 27 25 24 25 24 22 27 23 22 23 22 22 22 24 23 28 35 41 37 32 30 38 35 35 29 25 19 18 22 55 82 86 88 100 97 100 100
51 42 45 38 39 39 47 36 33 34 34 31 32 28 26 28 25 25 26 26 23 21 24 29 33 37 47 68 66 66 52 40 39 44 49 40 35 31 23 18 19 34 75 90 95 100 100 100 100
26 26 28 29 31 37 35 38 34 27 22 21 26 25 24 24 22 20 18 17 18 24 24 34 52 54 83 100 100 90 73 44 44 67 64 46 39 35 23 19 17 17 32 98 100 100 100 100 100
52 52 33 26 28 30 33 36 37 35 29 31 22 18 21 23 26 21 18 18 18 20 42 48 53 58 99 100 95 93 58 43 51 70 68 54 48 34 26 20 20 22 24 50 100 100 99 83 92
100 75 81 70 50 40 41 40 38 37 37 32 29 22 24 25 29 26 28 33 31 47 42 33 42 49 89 99 96 77 65 56 95 66 60 58 53 38 33 25 21 20 44 44 100 100 89 74 88
92 81 63 53 54 50 96 76 58 46 42 35 30 28 29 28 29 33 36 51 73 72 59 53 63 51 67 90 100 91 77 58 60 65 60 55 47 43 41 29 27 21 32 59 100 100 92 78 81
100 99 100 100 100 100 100 100 100 65 51 44 42 31 31 44 32 35 44 44 66 73 97 68 66 80 73 89 100 98 74 52 55 91 59 56 58 57 51 44 40 28 28 57 67 100 100 100 93
100 86 80 100 100 100 100 100 100 100 90 62 34 40 38 31 36 32 42 48 39 34 58 38 42 90 87 84 83 70 52 54 87 81 69 81 80 75 68 60 48 30 20 25 60 80 100 97 100
78 92 88 88 92 93 89 77 99 98 84 84 68 41 44 36 37 45 35 48 53 36 57 37 39 71 60 62 68 76 91 98 100 82 86 100 96 92 80 54 38 29 24 20 42 66 71 100 99
58 63 72 62 63 69 66 75 81 82 74 77 77 69 48 36 47 58 46 50 58 38 47 31 36 98 100 100 100 100 100 89 100 94 90 100 100 96 66 52 36 30 25 22 53 98 71 57 97
65 38 43 47 48 49 50 51 62 72 64 66 55 54 52 46 49 51 57 62 72 49 35 44 39 75 100 100 100 97 91 100 87 84 93 100 100 90 68 44 31 28 28 23 22 61 66 53 72
80 64 62 50 33 43 43 38 44 48 54 49 51 45 40 42 60 47 56 56 70 64 36 37 37 62 95 100 100 100 100 99 82 77 82 100 100 85 48 34 29 30 36 28 25 26 42 44 42
62 67 77 60 39 43 38 47 50 31 47 32 35 35 36 37 45 65 51 54 51 63 48 35 48 45 99 100 100 98 89 100 100 98 100 100 88 50 36 32 36 34 48 40 30 28 30 34 28
35 42 48 51 39 33 37 34 37 64 50 51 38 28 26 30 52 54 59 68 66 58 55 34 37 53 92 100 100 100 98 100 100 100 100 84 64 34 32 29 32 36 40 42 39 34 28 22 61
29 28 33 37 36 34 37 24 31 47 48 45 35 31 23 25 52 56 56 58 56 58 72 43 34 40 44 57 97 99 93 100 98 72 69 63 37 33 33 32 37 30 25 30 36 36 32 17 76
21 23 25 24 26 27 26 20 25 35 38 39 36 29 25 24 29 56 52 47 79 50 64 62 50 39 37 52 74 75 83 68 50 56 53 36 35 38 38 37 36 32 26 28 35 36 35 21 77
11 11 12 10 20 19 20 14 19 24 29 24 32 26 23 21 29 43 70 60 88 65 53 88 71 54 39 42 82 95 63 59 51 50 40 37 34 38 41 44 41 34 29 27 37 39 36 24 52
6 6 6 8 10 12 13 13 14 16 22 19 20 22 21 24 34 59 92 87 100 85 47 87 86 70 60 56 58 73 62 54 48 48 43 36 34 38 40 46 52 43 32 28 34 38 34 26 25
6 5 5 6 9 10 10 11 11 12 16 18 20 22 23 27 45 43 90 74 90 80 58 52 96 78 74 64 48 46 51 61 66 64 56 41 42 43 46 57 56 52 36 36 43 37 32 20 40
3 4 4 6 8 7 8 7 8 10 12 16 19 23 30 38 51 46 38 70 92 81 72 56 94 97 95 100 75 42 54 84 100 100 79 57 48 47 52 65 68 61 37 37 48 36 32 25 82
3 3 3 4 5 6 8 8 9 11 11 14 20 29 29 25 21 29 32 67 100 92 79 64 70 100 100 100 76 49 68 100 100 100 100 84 57 54 61 68 76 66 40 37 50 39 30 74 100
2 3 4 4 4 6 8 8 10 10 13 17 24 20 23 21 17 18 34 42 96 97 80 70 85 100 100 100 100 97 73 99 100 100 100 83 65 74 80 74 73 64 43 40 49 38 88 99 84
4 4 4 5 5 6 7 8 9 12 15 17 21 25 25 19 16 19 36 39 97 100 93 79 90 100 100 100 98 100 90 95 96 100 100 74 96 98 94 80 78 66 44 40 50 40 98 100 100
3 4 5 6 8 7 7 8 11 14 17 20 23 29 31 24 20 29 34 49 100 100 91 89 82 83 100 100 100 100 100 100 100 100 100 83 89 100 99 87 84 67 46 41 53 52 100 100 100
5 5 6 8 8 9 10 11 13 17 24 28 30 34 34 30 30 36 35 56 100 100 100 100 90 79 100 100 100 100 100 85 91 68 100 100 100 100 99 97 83 60 48 42 52 61 100 100 100
7 8 9 9 10 13 13 12 16 18 34 100 100 49 44 36 39 48 48 83 100 100 100 79 86 100 96 100 100 100 100 97 67 62 99 100 100 100 100 100 83 67 52 45 51 56 100 100 99
12 13 13 13 16 14 14 14 26 58 30 48 100 73 39 40 44 55 61 100 100 100 80 85 81 86 100 80 80 100 100 85 63 88 100 100 100 100 100 100 76 54 56 50 52 58 100 100 100
16 13 15 15 20 23 32 29 33 45 90 64 100 78 41 47 52 53 55 88 100 100 100 99 88 100 100 100 100 100 99 65 64 86 100 100 100 100 100 100 87 55 62 56 48 59 100 100 100
18 20 20 27 73 72 54 57 51 68 76 100 100 100 100 100 100 80 59 56 90 100 98 86 93 93 95 100 100 100 100 83 82 100 100 100 100 100 100 100 94 68 65 57 49 58 89 100 100

GFSSGP_250_rhum_111.txt.gz
RH
45 43 44 42 35 38 50 50 40 32 28 32 31 29 29 27 25 25 20 18 17 16 16 15 14 15 16 16 15 15 14 14 14 17 16 16 17 17 17 15 17 21 19 29 61 88 77 89 100
40 38 36 41 41 40 53 47 46 33 34 31 29 30 31 26 22 26 22 22 19 16 17 18 16 14 14 16 18 18 19 20 22 23 27 22 22 27 24 23 21 18 17 20 48 98 95 100 92
38 33 30 33 49 52 50 47 45 39 34 30 29 28 30 32 31 26 24 22 20 18 15 17 18 16 18 17 17 19 22 46 44 47 41 28 34 39 36 28 24 18 17 16 30 72 100 100 100
39 48 51 23 32 30 30 33 34 32 30 31 29 32 29 26 29 27 26 24 20 18 16 15 14 14 18 17 18 26 50 70 81 69 44 40 51 52 45 36 32 23 19 17 17 32 96 100 100
100 99 81 100 89 90 99 83 41 30 31 28 26 26 23 21 22 26 24 22 22 21 19 16 15 16 22 24 31 51 85 99 86 73 48 82 57 54 46 41 36 29 23 18 20 21 67 100 100
78 78 54 66 91 100 96 92 98 98 59 48 38 31 26 21 23 23 23 24 27 25 31 33 32 26 30 27 29 39 84 98 88 61 59 66 53 50 44 44 39 39 32 26 18 32 46 100 100
55 50 40 54 55 54 62 86 86 90 96 62 45 69 66 41 29 26 24 22 31 32 30 34 44 48 65 55 55 54 76 100 96 68 58 54 81 61 47 60 61 62 54 32 21 26 55 100 100
100 92 67 66 87 86 100 100 77 70 74 62 65 56 77 72 47 33 30 30 37 36 34 32 37 40 86 68 54 59 69 94 100 66 59 58 88 57 65 75 81 76 60 31 24 19 37 74 100
68 70 86 100 100 100 99 100 100 88 62 69 67 57 57 69 77 64 40 40 43 44 35 35 42 33 48 49 43 51 66 62 69 58 62 91 82 71 88 85 95 80 56 39 28 21 17 34 100
100 96 100 100 100 98 85 85 90 94 94 98 80 62 60 61 80 84 60 43 46 48 36 32 47 29 43 67 44 53 52 52 64 93 100 92 92 84 92 100 96 79 59 33 24 22 19 20 54
71 67 81 93 88 94 100 81 67 64 62 64 67 68 68 48 50 53 75 59 59 54 46 40 39 30 34 57 52 98 100 100 99 80 99 100 90 85 100 100 96 80 43 26 24 26 22 19 46
100 100 92 100 98 84 57 46 56 65 58 63 63 50 47 53 54 45 82 74 71 60 44 48 40 36 32 45 62 61 86 94 91 66 100 89 78 79 86 100 96 52 35 27 24 26 26 20 21
96 97 95 77 59 53 47 44 43 46 85 81 65 51 42 37 40 43 50 77 65 56 59 46 33 43 29 39 58 67 86 89 100 100 99 85 76 87 100 100 58 39 33 27 25 24 29 24 22
59 59 57 60 58 41 44 47 42 53 94 81 72 58 43 34 30 33 38 59 79 66 76 45 37 47 36 38 57 81 70 89 93 89 100 100 100 100 100 74 40 36 32 29 25 25 27 30 25
32 26 28 29 29 46 34 35 42 62 64 66 64 60 43 33 32 29 31 42 76 63 96 58 42 41 43 37 47 86 83 68 97 91 100 100 100 100 83 45 40 37 35 33 28 24 24 27 26
31 30 20 22 22 23 28 24 31 44 57 58 60 52 44 37 34 29 29 39 86 77 71 73 45 41 37 36 40 55 98 86 80 86 100 100 100 83 44 39 42 41 43 39 32 28 26 29 29
21 22 23 20 24 24 23 17 23 29 38 46 49 56 46 38 26 27 27 31 58 100 85 87 61 43 41 40 41 42 60 66 76 79 86 82 67 40 38 40 41 41 44 49 45 31 26 32 34
26 25 16 12 16 18 13 12 13 23 27 29 37 44 44 35 29 30 31 37 38 66 100 99 73 45 45 45 53 45 48 58 58 57 67 62 44 38 42 44 43 46 53 65 64 40 30 31 36
18 11 10 8 8 8 8 8 7 14 18 24 31 41 42 36 36 33 32 36 36 52 66 97 72 72 50 50 61 56 62 61 68 71 64 60 42 41 48 46 50 47 56 68 75 46 34 40 42
7 6 5 5 5 4 5 4 6 8 10 16 24 31 33 36 36 30 28 28 33 32 38 86 66 61 70 52 71 64 68 82 65 63 66 49 44 52 62 58 70 56 60 68 68 52 35 41 43
5 4 4 3 3 3 3 4 5 7 8 12 20 26 30 28 26 26 24 24 20 24 32 57 88 64 83 72 81 79 70 81 76 68 56 49 67 76 68 57 74 56 64 70 75 59 38 45 41
3 2 2 2 2 2 2 3 4 6 8 10 16 19 23 27 26 25 23 17 17 25 41 50 87 100 96 85 97 88 84 63 61 81 71 79 88 89 82 54 63 58 75 76 87 65 42 46 42
2 2 2 2 2 3 3 4 4 6 8 9 13 15 18 22 22 20 20 16 18 22 35 71 93 100 100 89 84 100 86 60 70 74 74 89 82 98 88 58 61 69 100 89 73 69 44 43 43
2 2 3 2 3 3 3 4 5 7 9 11 12 13 16 18 16 14 16 16 19 21 31 62 100 100 100 89 88 94 83 88 100 100 100 100 100 100 96 72 67 94 100 95 72 70 47 42 43
3 3 3 3 4 4 4 5 6 8 12 13 14 17 18 17 16 17 18 18 18 21 28 42 100 100 100 100 100 87 100 91 100 97 82 100 100 100 100 82 61 81 100 100 80 71 44 41 47
5 5 4 5 5 5 6 7 8 9 11 13 16 18 20 20 21 20 20 18 18 24 35 45 97 100 100 100 98 93 100 100 100 100 90 100 100 100 100 67 53 79 100 100 89 61 48 48 44
8 7 7 6 7 9 10 12 14 14 14 17 20 22 23 24 24 24 22 21 20 24 33 50 68 100 100 100 100 98 100 100 100 100 100 100 100 100 96 70 64 95 100 100 92 70 53 56 47
9 10 10 9 8 12 14 14 28 30 36 34 31 70 36 34 29 29 30 24 24 27 34 55 54 100 100 100 100 100 100 100 100 94 100 100 95 86 97 96 75 100 100 100 100 88 67 55 49
12 13 12 14 13 14 14 13 30 61 100 100 100 100 100 74 42 37 41 41 37 37 38 50 56 100 100 100 100 100 100 100 100 64 55 49 58 92 100 100 100 100 100 100 100 100 80 64 56
17 18 16 18 20 22 23 21 39 48 92 100 100 100 100 98 50 69 94 52 44 42 45 53 61 96 100 100 100 100 100 100 100 92 72 71 75 76 93 89 100 100 99 100 100 100 85 76 58

GFSSGP_250_rhum_117.txt.gz
RH
38 37 33 34 42 53 70 67 54 35 34 33 31 31 30 30 29 30 30 27 25 22 19 18 14 14 13 12 12 13 12 13 13 13 12 12 11 12 12 13 13 12 14 17 13 14 14 12 11
21 21 21 24 29 32 36 39 33 39 39 43 42 39 35 37 44 47 38 36 33 29 28 25 24 22 18 15 15 14 13 13 13 13 12 12 12 14 17 18 20 22 21 20 25 21 16 17 16
27 26 24 21 22 30 34 33 32 29 30 32 39 39 35 35 36 40 38 33 30 31 30 28 26 25 23 21 18 14 13 12 12 12 12 13 14 20 29 33 38 32 26 35 29 28 27 24 18
36 32 29 26 43 44 36 32 29 27 26 29 29 30 31 30 32 34 33 31 28 29 27 25 26 26 26 25 20 17 14 13 12 12 13 16 21 24 43 56 55 47 50 42 35 38 32 32 22
41 40 39 44 66 92 76 52 40 46 59 49 36 35 33 32 35 44 43 36 29 27 25 23 24 23 24 26 25 21 16 14 14 15 17 24 57 75 75 80 70 58 53 46 39 39 31 30 26
57 54 48 57 78 96 100 96 70 71 75 64 61 72 81 71 86 86 72 62 54 40 36 34 29 26 22 23 30 31 25 17 15 18 20 31 67 73 73 79 74 63 52 45 43 42 40 32 25
68 67 66 63 75 100 100 100 100 99 100 84 61 66 68 65 71 67 60 56 58 63 56 63 57 34 24 23 29 36 38 29 29 28 30 28 73 93 93 78 67 56 59 63 53 51 51 39 26
45 50 49 64 77 87 83 83 97 86 82 82 74 60 57 56 50 51 53 46 45 53 60 69 54 54 38 22 31 33 34 29 38 36 37 38 39 90 95 83 70 60 57 68 57 58 56 46 28
46 47 71 99 97 94 70 57 72 83 85 76 73 80 79 85 66 59 59 54 44 50 56 79 88 73 62 37 31 34 36 32 32 30 28 36 43 56 70 77 80 64 83 64 74 79 69 48 28
59 66 88 89 81 55 83 75 100 100 100 100 100 98 76 61 62 72 90 88 77 67 56 63 79 86 70 58 42 37 35 33 34 37 32 32 37 49 59 76 99 91 85 91 94 91 76 45 26
63 53 67 63 80 82 76 66 60 84 100 97 87 99 99 100 100 97 96 86 81 59 52 43 44 61 76 63 48 44 34 35 37 38 37 37 76 99 97 100 100 91 88 86 95 92 58 36 28
87 70 54 53 59 57 60 65 56 58 73 100 92 97 97 67 98 98 91 92 86 68 57 38 42 43 45 48 56 50 37 44 36 35 38 54 74 83 99 90 100 85 77 79 100 75 40 31 24
100 84 74 63 59 67 73 82 70 72 88 92 100 100 100 100 80 76 68 67 60 68 67 59 50 56 46 39 41 48 41 44 49 34 35 40 50 83 77 94 98 86 89 100 100 52 36 34 30
73 77 75 78 93 92 100 100 100 99 75 84 97 100 100 100 100 96 98 84 71 60 56 47 41 48 58 46 40 45 45 41 53 47 36 38 46 66 73 93 87 100 99 100 92 43 42 38 40
40 40 52 54 60 71 64 52 46 65 89 99 100 100 100 100 100 99 91 100 96 81 65 55 45 50 73 63 50 42 52 44 56 58 42 39 45 59 79 71 100 100 95 100 73 41 42 47 41
32 33 35 40 42 41 33 29 37 35 28 33 35 41 87 100 100 100 86 80 83 71 67 62 60 56 82 78 61 39 45 38 48 64 51 42 42 63 67 80 100 99 100 100 55 40 42 58 47
32 39 43 49 55 35 26 24 37 28 28 27 29 28 32 90 99 85 93 79 73 59 59 57 62 74 80 87 69 44 44 60 70 76 60 53 40 49 69 86 100 74 92 90 42 40 48 54 50
46 46 46 40 54 28 25 23 23 33 24 23 23 25 25 36 52 50 74 93 69 51 54 59 64 72 77 75 63 50 38 57 92 84 64 63 45 42 55 70 100 88 92 53 41 44 48 51 54
42 39 34 31 28 23 22 13 17 13 16 10 9 7 9 18 28 36 45 58 54 48 48 48 62 67 75 95 65 54 45 46 81 91 81 70 60 45 52 49 90 100 76 46 45 46 50 54 57
36 30 28 19 13 11 10 9 8 7 6 8 8 9 10 10 19 26 33 36 41 44 38 42 46 72 90 95 73 55 54 73 72 90 100 80 79 51 44 43 48 81 77 44 50 57 56 60 72
32 28 19 10 8 6 5 5 4 4 4 4 4 5 6 9 13 18 22 27 31 31 32 33 40 55 85 84 40 59 57 85 93 100 100 98 83 65 45 53 65 85 73 47 50 64 62 66 68
31 21 12 8 7 6 5 4 2 2 2 2 2 2 3 4 6 12 16 22 26 26 27 32 36 46 74 63 82 100 94 94 100 100 100 100 96 77 57 58 79 84 71 48 62 99 94 90 60
24 15 10 9 6 4 3 3 2 2 2 2 2 2 2 2 4 7 11 17 22 23 21 30 36 38 61 62 100 89 91 100 100 100 100 100 100 76 71 63 89 78 61 51 93 100 100 96 58
14 12 10 6 5 5 4 4 3 3 2 2 2 2 2 2 3 4 7 12 16 18 19 34 46 39 45 52 60 65 51 65 98 100 100 100 100 81 80 99 85 68 66 74 94 100 100 89 67
13 13 7 8 6 5 6 6 5 4 4 3 3 2 2 2 3 4 6 8 11 15 17 30 47 61 58 58 51 49 46 45 54 82 100 100 100 94 75 86 98 94 95 89 98 83 87 86 80
16 9 9 8 10 11 10 9 7 6 5 4 4 3 3 3 4 4 6 8 10 12 18 28 42 47 66 71 65 48 48 51 47 56 56 75 100 100 68 78 100 94 70 68 64 74 82 92 100
12 10 10 12 13 14 11 10 9 7 6 5 5 5 4 5 5 5 7 9 10 14 22 33 46 64 87 88 92 66 46 48 70 68 70 47 90 100 98 96 84 74 100 96 85 91 100 100 100
11 12 13 14 19 18 16 14 12 8 7 9 9 8 7 8 8 8 10 11 12 14 18 27 42 56 56 63 69 67 46 54 55 63 62 52 84 85 72 79 82 94 98 99 100 100 100 87 92
13 14 16 18 20 25 22 16 17 18 15 16 16 19 13 15 13 12 13 16 18 17 20 24 31 41 54 67 61 56 46 56 80 72 79 65 98 99 90 88 81 99 100 100 100 98 100 100 94
14 18 22 20 26 36 37 34 37 36 29 33 34 33 26 21 21 19 18 18 21 25 26 29 36 42 42 43 44 51 46 60 75 66 83 86 96 100 96 100 90 100 100 100 100 100 100 100 100

GFSSGP_250_rhum_120.txt.gz
RH
20 24 33 39 48 53 58 60 48 32 35 37 30 30 33 33 33 32 25 24 21 21 20 18 16 17 16 13 12 11 12 13 14 13 12 11 11 11 9 10 10 12 11 10 14 12 15 15 15
24 24 21 20 22 24 27 26 26 27 31 33 35 36 31 29 38 38 34 29 28 28 27 28 23 22 21 19 18 15 15 14 14 15 14 11 11 10 9 9 11 11 14 18 17 20 21 26 28
25 27 29 29 27 26 27 22 20 19 18 19 24 23 22 27 34 37 36 33 33 30 30 29 27 26 26 23 22 21 19 17 16 15 13 12 11 10 9 10 12 18 25 24 24 30 46 41 33
31 28 30 37 38 38 36 30 27 30 29 27 27 26 27 25 28 30 29 30 28 29 32 30 27 27 26 25 24 24 23 18 16 16 14 12 11 11 10 13 22 31 42 40 42 54 46 41 36
34 35 34 39 48 48 49 45 44 49 51 46 44 44 36 32 32 31 30 31 31 31 30 30 30 28 25 26 24 23 22 21 18 18 15 13 13 13 15 25 48 64 61 56 59 60 48 42 40
43 34 36 44 58 59 59 56 70 72 65 74 80 74 59 56 62 60 63 68 67 72 67 55 48 39 37 34 30 30 27 26 22 20 18 17 17 15 26 58 59 65 61 65 58 63 52 46 44
77 66 44 44 55 64 67 68 68 76 96 98 98 100 98 80 84 87 72 74 66 68 66 60 52 47 44 47 40 38 29 31 34 26 24 22 21 20 24 70 73 96 92 76 60 60 61 61 56
76 68 47 47 46 60 69 74 71 78 81 74 81 84 85 86 87 78 69 67 64 61 53 53 49 47 45 47 49 39 38 34 36 36 27 24 28 28 25 48 75 81 84 84 74 56 58 67 54
85 92 76 91 88 57 50 63 60 78 79 84 76 62 49 60 80 81 78 70 65 64 61 55 51 48 42 48 53 44 42 46 37 37 35 28 27 28 33 39 63 100 100 88 84 60 78 66 54
100 86 77 81 66 61 49 55 77 66 90 83 65 58 52 77 100 100 100 99 97 86 72 53 44 60 62 59 57 64 54 48 45 42 38 38 30 35 35 37 55 90 89 90 99 91 84 89 60
100 100 98 86 74 73 75 67 70 84 82 73 64 78 68 75 98 100 100 96 76 62 76 68 52 58 55 52 51 47 42 62 52 45 46 41 38 42 36 80 90 71 98 100 92 90 92 82 76
100 100 100 100 100 100 100 96 83 73 69 89 82 100 83 63 46 66 88 100 98 98 100 100 97 87 68 54 42 32 30 38 45 54 47 45 40 35 38 78 100 100 100 100 99 95 89 90 69
100 100 100 100 100 100 100 100 91 90 92 86 100 85 91 91 81 70 88 95 88 88 91 79 76 73 46 54 73 59 42 38 36 43 56 46 46 39 34 48 95 98 100 100 100 98 100 88 54
100 99 94 97 91 85 84 84 83 86 95 100 99 100 100 100 83 66 60 78 99 97 81 74 90 84 82 74 81 71 53 44 38 40 54 68 46 47 39 38 41 88 100 100 97 100 100 89 49
58 55 53 52 59 65 56 49 51 49 50 57 91 100 100 100 100 100 100 100 100 100 100 100 100 97 89 84 75 72 57 44 38 43 49 86 74 49 46 41 38 65 100 100 100 100 100 77 44
43 42 40 40 39 40 39 35 36 37 34 34 40 49 71 91 98 98 100 100 88 100 100 100 100 100 100 97 98 82 65 49 39 45 48 69 100 64 52 40 40 51 97 100 100 100 100 75 43
38 44 38 37 35 40 38 32 34 30 27 26 26 27 36 45 70 72 68 85 100 100 100 100 100 100 100 94 99 82 65 47 44 47 52 55 100 91 54 45 41 53 86 100 100 100 100 80 42
48 42 38 36 32 29 28 26 27 29 27 28 25 23 23 26 36 52 65 61 69 67 78 96 100 100 100 100 97 83 75 48 51 53 60 54 92 100 83 54 44 53 70 100 100 95 96 67 43
45 39 37 35 33 34 33 31 22 26 26 15 16 15 14 14 21 23 41 56 65 67 56 47 49 100 100 100 89 98 73 62 50 44 55 55 63 100 100 70 46 46 64 89 100 85 97 50 45
42 39 35 37 37 31 24 18 13 11 10 9 9 8 8 7 8 12 21 26 38 50 39 47 50 70 100 100 99 82 75 57 38 39 48 58 50 65 100 98 59 44 50 80 100 99 85 47 54
44 40 40 32 25 23 12 11 10 9 7 6 6 6 7 7 8 8 9 14 22 36 43 38 55 53 79 100 100 86 75 51 56 59 80 67 60 62 100 100 78 46 51 53 72 78 81 51 58
44 44 34 27 21 16 11 8 6 6 5 4 4 3 3 3 4 4 5 8 14 21 28 31 46 50 52 99 91 73 56 68 80 37 40 61 63 74 92 100 98 62 52 52 60 69 84 54 60
41 34 30 23 17 10 8 8 6 4 3 4 3 3 2 2 2 2 3 5 8 14 20 22 27 37 44 85 71 58 48 54 52 45 42 85 88 90 93 100 100 89 67 56 70 86 95 62 77
34 30 24 16 12 11 10 6 6 6 5 4 4 3 3 2 2 2 2 3 5 10 16 20 25 28 35 53 51 45 68 92 100 98 68 100 100 98 92 100 100 100 75 64 83 91 98 74 95
32 25 17 17 14 10 8 9 8 8 7 6 6 5 4 3 2 2 2 2 3 6 12 16 23 24 32 45 65 53 68 100 100 100 100 92 100 91 85 74 100 100 80 72 89 100 99 75 100
32 18 17 20 12 10 13 16 21 16 13 10 8 6 5 4 3 3 2 2 3 4 7 14 20 23 31 53 83 63 71 100 100 100 100 100 87 72 67 72 100 100 91 85 76 97 83 84 91
26 23 22 15 10 17 19 27 40 29 24 13 10 8 6 4 4 3 3 3 3 4 8 20 24 28 28 35 48 65 77 100 100 100 100 100 81 54 40 62 88 100 100 100 95 87 95 91 86
26 28 21 11 17 20 51 71 80 61 35 18 13 9 8 6 5 4 4 4 4 4 8 17 26 27 32 45 61 56 87 100 100 100 97 82 64 62 42 54 76 90 100 100 73 95 79 90 98
31 29 15 12 21 24 59 86 69 75 41 33 25 15 10 10 7 6 5 5 6 6 9 16 18 26 33 41 55 86 76 82 100 86 68 51 55 64 59 73 70 89 100 99 96 100 100 100 100
31 28 14 18 27 64 76 89 92 61 62 50 43 28 16 14 12 10 9 9 9 10 10 16 13 24 28 47 58 88 94 99 100 100 85 63 51 56 57 90 90 95 100 100 100 100 100 100 100

GFSSGP_250_rhum_123.txt.gz
RH
24 24 22 20 22 29 32 36 48 37 34 36 37 34 35 35 33 32 29 30 28 24 24 24 21 22 20 20 20 17 16 15 12 12 13 12 12 11 12 12 12 12 10 9 10 10 11 11 14
24 24 24 25 25 24 25 22 26 28 34 38 40 36 35 37 35 33 30 30 31 27 25 26 25 26 26 26 23 23 21 19 16 15 14 12 12 13 12 11 11 10 14 13 19 21 22 30 25
30 31 33 30 28 27 27 28 25 22 21 21 21 21 20 20 20 20 23 21 23 22 23 33 33 26 25 28 29 26 27 23 20 18 14 13 12 12 12 12 11 15 10 16 18 25 46 43 50
50 39 37 38 35 37 36 33 35 33 31 28 27 26 24 25 29 32 31 26 25 27 27 27 31 31 30 28 27 28 24 23 21 18 15 14 13 13 13 12 11 12 14 20 12 27 54 58 52
92 67 58 46 49 40 43 52 42 48 43 37 42 41 38 52 64 61 53 42 37 34 33 32 31 31 32 36 43 44 37 31 29 25 21 16 16 15 14 13 14 14 14 20 29 60 67 61 67
100 100 97 76 55 66 44 42 43 54 55 55 57 58 72 66 55 72 78 66 54 51 49 51 52 58 58 70 61 52 46 40 39 36 28 23 20 43 44 24 18 25 32 42 44 43 42 51 51
100 100 100 100 98 75 66 75 52 43 46 40 56 61 54 52 78 100 100 100 94 72 73 70 66 60 54 57 58 53 45 40 38 36 35 30 24 22 24 30 18 33 62 60 41 47 48 58 54
100 100 100 100 100 100 83 74 91 66 50 46 56 51 62 53 65 65 68 86 83 89 98 92 76 66 58 52 48 51 52 48 41 38 42 38 32 27 27 31 29 27 47 72 59 60 56 62 64
100 100 100 100 100 100 100 91 100 71 77 81 50 55 51 41 58 70 54 34 45 40 52 75 82 86 67 62 54 49 49 44 43 39 42 48 44 34 30 31 34 31 37 52 68 88 74 65 66
91 83 82 91 100 100 100 100 94 87 88 99 71 53 56 61 70 66 63 58 47 55 88 98 97 94 89 75 67 62 43 50 56 49 53 52 55 48 36 36 44 52 34 40 54 78 73 84 78
96 90 95 100 100 100 100 100 100 100 100 92 82 92 92 91 86 85 84 74 63 61 70 100 100 100 100 99 80 55 44 62 67 58 51 52 54 60 73 67 84 64 69 68 62 73 100 90 72
77 83 80 78 75 81 100 100 100 100 100 100 100 100 100 100 100 100 100 98 93 78 77 77 94 100 97 96 95 94 70 62 56 45 39 36 46 56 66 67 50 38 90 85 96 100 100 80 74
97 100 100 100 100 100 100 100 100 100 100 100 100 100 100 100 100 89 96 100 100 91 75 73 90 100 100 100 95 95 100 92 67 43 41 46 41 39 57 67 48 42 62 71 80 99 100 100 74
61 61 64 85 100 100 100 100 100 100 100 100 100 100 100 100 100 100 100 100 100 100 91 91 75 99 100 99 96 84 76 60 44 38 49 54 51 48 43 58 70 52 44 42 68 96 96 93 84
65 61 60 60 61 57 51 57 59 62 62 57 60 77 84 100 94 100 94 98 100 100 100 99 78 86 100 100 100 96 92 76 52 35 46 47 41 38 48 57 70 62 48 45 50 97 100 100 100
49 52 50 46 46 47 47 46 42 39 38 37 42 45 44 55 78 81 90 81 94 100 100 100 100 100 100 100 100 100 100 96 78 51 39 38 49 39 46 60 84 78 58 49 47 60 100 100 100
46 41 39 37 34 35 34 34 32 28 26 28 29 30 32 35 40 43 81 73 61 87 99 100 100 100 100 96 100 100 100 100 100 76 64 55 57 48 44 52 62 97 79 55 50 54 94 100 100
46 39 36 37 38 36 32 29 28 28 24 24 20 18 19 19 22 28 34 46 46 55 64 64 100 100 100 100 100 100 100 100 100 93 88 75 49 48 45 51 53 92 100 68 50 60 92 100 100
44 40 34 37 38 36 32 30 27 25 18 17 15 15 14 13 14 16 18 24 33 31 49 55 64 64 99 100 100 100 100 100 100 100 90 64 55 40 45 56 58 80 100 91 54 53 74 100 100
45 37 39 41 35 32 29 27 23 19 15 15 14 15 15 15 16 17 17 19 22 25 27 33 24 55 68 96 93 99 100 100 100 100 88 76 71 46 44 57 61 64 100 100 77 55 65 100 100
48 39 42 41 37 36 27 27 19 17 14 12 10 10 11 10 10 10 9 8 9 14 22 28 34 45 57 64 90 61 82 94 100 100 99 100 75 56 39 40 63 59 58 100 100 68 57 74 100
42 40 43 43 40 34 32 21 22 14 11 9 7 7 6 6 6 6 6 6 7 8 9 16 32 22 31 41 57 74 62 79 68 99 84 83 82 62 43 33 46 56 54 98 100 85 57 61 78
46 44 48 48 42 32 28 18 12 12 11 8 6 5 4 4 4 3 3 3 3 4 5 8 16 29 23 28 42 69 63 82 78 46 39 42 59 48 40 36 44 57 60 86 100 79 59 60 60
47 49 55 46 38 31 21 16 15 13 9 7 6 5 5 4 4 3 3 2 2 2 2 4 8 19 17 23 36 52 50 80 60 45 42 39 51 71 80 78 53 58 60 82 100 91 71 66 68
51 59 50 41 36 31 21 19 14 9 9 9 10 9 5 5 4 4 3 3 2 2 2 2 4 10 14 18 36 57 74 71 70 63 80 97 99 100 91 100 64 76 66 70 99 93 93 74 72
56 62 45 34 34 24 21 17 12 11 14 14 15 13 10 7 6 5 3 3 2 2 2 2 3 6 12 18 34 43 52 55 66 92 100 100 100 100 100 100 86 56 65 53 65 90 97 94 82
62 56 47 36 27 21 20 12 14 17 31 28 24 22 17 9 7 6 4 4 3 3 2 2 3 5 14 24 27 47 59 71 84 100 100 100 100 100 100 100 88 61 62 63 66 94 100 92 83
70 52 46 33 24 25 15 14 21 31 50 50 45 26 19 12 9 7 5 4 3 3 3 3 4 6 17 28 48 60 81 84 91 100 100 100 100 100 100 100 94 69 55 46 70 92 100 100 99
55 60 42 34 25 19 16 21 35 63 67 86 74 42 29 21 13 11 6 4 4 4 6 5 4 7 19 34 69 81 90 89 98 100 100 100 100 100 100 96 96 89 70 48 65 96 100 100 100
68 55 33 35 28 20 19 30 39 72 88 99 79 65 40 23 19 12 8 6 5 5 5 6 7 11 20 35 70 87 100 100 100 100 100 100 100 99 100 100 100 84 54 59 67 79 100 100 100

GFSSGP_250_rhum_129.txt.gz
RH
61 53 61 72 82 61 32 28 22 22 22 24 22 17 19 22 22 23 23 32 23 31 30 29 30 29 30 26 24 24 23 22 21 19 20 19 16 15 13 12 12 11 11 12 16 20 22 21 24
66 58 55 74 94 95 72 35 32 25 25 28 25 24 23 22 20 19 21 24 17 22 26 25 24 24 23 20 20 20 19 19 20 18 17 18 16 15 14 12 12 11 12 10 13 12 15 23 25
59 54 45 48 96 100 100 83 62 48 31 31 33 33 31 26 23 22 31 28 21 25 26 22 20 20 19 19 18 18 18 18 18 20 22 24 24 22 18 16 15 14 12 12 11 12 13 13 18
33 43 47 43 42 95 100 99 91 78 58 43 44 46 48 43 26 31 38 37 25 28 32 26 30 31 30 34 34 33 32 32 35 34 30 32 31 28 25 22 19 16 14 12 11 13 17 22 20
25 31 35 48 45 50 72 100 100 100 98 100 100 89 84 67 48 30 31 41 37 38 42 45 49 51 45 46 51 50 46 46 50 46 42 38 37 35 32 27 22 21 18 30 29 28 33 32 23
24 24 29 38 45 77 91 69 88 100 100 100 100 93 96 98 84 50 47 58 51 51 49 58 63 50 57 96 100 91 59 57 58 67 59 55 47 43 40 30 27 23 22 19 27 41 32 21 35
23 27 30 33 61 99 82 76 81 98 100 100 100 100 89 99 100 100 87 85 95 48 41 42 38 52 90 91 79 65 68 86 78 79 90 78 68 53 48 42 33 28 26 24 24 36 29 23 24
34 38 48 63 81 100 91 96 70 68 64 98 100 100 100 100 100 100 100 100 83 58 54 42 40 43 44 66 48 56 52 56 54 53 74 86 81 68 59 50 41 36 30 32 28 30 31 37 38
45 53 63 73 81 98 100 100 100 82 66 59 77 74 71 76 66 57 95 100 100 100 100 74 57 48 43 40 44 50 49 57 51 46 44 58 96 90 68 51 52 46 39 38 40 37 37 47 38
55 88 86 97 97 100 100 100 100 100 100 100 100 100 96 95 96 75 52 88 80 90 100 100 74 69 68 57 48 48 46 75 88 68 92 100 100 99 64 53 50 56 58 48 52 76 69 49 41
61 74 79 92 100 100 100 100 100 100 100 100 100 100 100 100 100 100 86 87 82 98 90 97 100 94 91 80 63 60 74 88 100 82 73 98 100 96 78 77 55 52 52 47 54 62 63 47 57
52 54 64 72 88 91 89 98 100 100 100 100 100 100 100 100 90 83 91 80 83 84 75 75 76 99 100 93 84 69 100 100 100 98 60 48 47 77 100 95 72 62 46 47 41 56 65 45 74
47 55 56 62 73 76 81 97 100 100 100 100 100 100 100 100 100 100 100 100 100 100 100 91 78 64 80 86 85 90 72 100 98 83 64 60 51 61 100 96 84 65 70 46 54 60 61 63 43
45 47 56 59 57 62 57 62 69 74 79 78 74 79 88 93 100 94 89 91 100 100 100 100 91 100 96 85 68 64 67 61 59 64 58 68 58 54 75 84 86 70 78 49 46 51 52 51 56
38 37 44 49 51 56 58 60 63 62 58 54 51 51 49 46 52 60 71 80 80 78 88 100 100 100 90 98 100 92 78 79 93 76 65 74 61 57 96 82 48 48 50 49 42 46 48 41 50
42 40 40 42 51 49 51 56 59 53 48 48 46 44 43 39 36 33 33 37 48 54 62 73 87 100 100 100 100 99 92 94 89 100 100 86 67 60 52 68 56 44 39 39 46 53 37 40 39
41 44 41 43 41 40 45 46 43 39 37 37 37 35 33 32 28 26 25 26 27 28 32 40 50 58 61 75 100 100 100 91 73 69 89 100 78 67 60 55 48 62 60 42 42 50 49 42 38
56 55 51 49 48 43 41 41 40 35 32 28 27 26 25 26 27 25 23 23 21 22 23 23 23 27 38 40 36 51 66 98 100 68 84 100 100 100 99 100 74 56 80 48 46 58 54 62 42
71 62 58 91 81 67 48 61 48 44 34 32 31 26 24 22 21 21 20 21 21 20 19 18 20 21 21 26 29 28 29 32 44 82 42 100 100 100 100 100 100 97 63 55 72 68 57 75 49
75 64 74 66 66 59 64 55 45 36 34 38 32 28 24 23 23 20 18 16 16 15 15 15 16 16 18 18 21 23 26 28 28 36 68 51 100 94 87 100 100 100 100 100 81 80 68 79 56
85 86 75 62 96 85 60 72 54 41 38 34 27 24 19 21 20 18 13 11 10 10 9 10 11 12 13 16 19 18 19 23 24 28 40 55 94 100 98 100 100 100 100 96 99 98 75 82 47
73 76 66 65 72 82 98 63 75 55 52 36 27 29 24 21 13 9 9 9 8 8 6 6 6 6 8 10 12 14 15 20 24 24 31 53 63 100 100 98 100 100 100 100 95 100 87 66 64
84 85 78 77 70 81 100 55 60 67 43 29 30 28 23 13 10 10 7 6 6 6 5 5 5 5 4 5 7 9 10 15 22 22 27 33 47 100 96 85 97 100 100 100 98 93 85 77 55
100 92 94 68 83 88 86 72 76 83 50 39 35 26 15 12 9 7 7 7 6 5 4 4 4 4 4 4 5 6 6 10 15 17 22 31 43 68 93 74 60 71 75 86 90 79 89 83 86
100 100 88 79 86 96 100 82 74 60 42 38 34 22 16 12 9 11 16 13 8 6 6 5 5 4 3 3 3 4 5 7 10 15 19 23 26 86 86 54 54 70 82 82 88 97 100 97 96
99 98 100 95 99 100 100 78 73 51 43 37 28 19 15 16 13 19 15 11 8 7 6 6 5 5 3 3 2 3 4 6 8 10 16 20 39 100 100 93 91 90 99 91 99 100 100 100 100
68 61 74 67 86 99 98 85 65 56 44 34 22 19 16 23 24 20 24 15 10 8 8 7 5 4 3 3 2 2 3 5 7 10 16 25 90 100 100 97 95 100 100 100 100 100 98 100 100
36 58 86 97 97 100 91 70 67 55 40 31 22 17 23 36 35 35 27 19 16 12 13 16 7 4 3 3 2 2 3 5 8 12 24 67 100 100 100 97 100 100 100 100 100 98 94 94 100
95 100 100 100 98 99 77 81 89 55 42 27 22 21 41 57 54 51 36 29 18 13 14 10 7 5 3 2 2 2 3 7 18 34 74 91 99 100 100 100 100 100 100 96 100 95 100 100 96
100 100 100 100 100 100 76 97 89 58 39 27 25 31 58 86 77 62 48 40 29 13 9 6 5 4 3 3 3 3 5 34 48 61 91 97 100 100 100 100 100 100 100 100 95 70 92 100 100

GFSSGP_250_rhum_132.txt.gz
RH
26 33 60 78 66 52 48 45 39 41 30 21 20 20 18 17 18 18 21 24 22 19 18 17 17 19 19 21 23 24 23 22 22 21 19 16 15 15 14 14 14 12 12 11 11 12 16 28 24
17 17 17 29 42 72 52 52 49 44 44 41 34 33 24 25 28 30 30 27 22 19 20 20 17 16 17 18 18 17 18 18 17 16 16 16 16 17 16 15 15 14 13 14 16 11 13 30 17
18 16 17 18 29 63 39 38 40 36 78 100 96 61 50 42 36 36 38 42 34 26 22 23 28 25 23 21 20 20 21 20 20 20 21 23 24 27 24 22 21 21 18 17 15 14 12 14 14
16 16 17 17 22 28 39 45 37 41 43 66 100 100 100 82 66 51 52 59 48 36 31 29 28 31 30 28 28 30 36 38 33 33 30 32 33 33 30 29 25 27 29 23 20 18 17 13 16
19 21 21 24 23 25 24 24 38 38 38 43 54 95 100 100 99 96 93 91 83 60 45 35 30 28 36 44 34 40 43 64 72 47 40 34 36 42 38 39 36 33 30 26 24 20 23 30 35
25 28 31 31 28 24 23 32 31 39 51 52 58 58 73 97 100 100 100 100 100 97 85 66 49 36 34 37 38 44 60 84 72 68 73 64 51 40 49 59 57 42 39 31 28 25 23 24 32
32 31 29 29 25 23 36 37 40 47 69 88 61 47 46 47 60 74 100 100 100 100 100 100 99 81 53 35 36 37 46 75 74 54 42 56 42 42 55 68 73 62 50 34 36 33 28 25 32
32 34 32 30 34 33 50 53 74 97 100 100 100 93 62 49 50 46 55 54 78 100 100 100 100 97 93 71 59 42 39 40 61 55 58 54 50 42 43 62 84 69 58 36 39 35 35 34 35
30 33 34 39 37 45 54 57 74 99 100 100 100 100 98 80 90 94 90 79 61 46 44 55 54 64 68 74 80 73 47 41 37 40 44 64 75 55 65 89 100 74 54 46 40 40 40 41 48
28 29 37 40 46 54 67 83 92 99 100 98 98 100 100 100 92 83 70 76 74 70 56 67 86 63 54 43 49 58 61 54 58 46 44 50 89 85 60 90 100 81 62 60 48 46 49 49 56
45 32 29 30 42 56 66 71 94 100 100 100 100 100 100 100 100 100 100 100 100 100 100 95 62 63 60 59 55 68 76 71 59 64 45 50 78 95 76 61 89 71 77 75 54 51 46 41 49
60 41 40 35 36 39 44 56 63 66 84 97 100 100 100 100 100 100 100 100 100 100 88 84 78 86 73 65 50 46 69 100 92 73 64 62 95 100 88 58 51 57 89 93 66 57 54 43 40
72 65 50 41 34 35 36 34 39 47 55 58 63 72 80 90 99 93 92 88 89 99 100 100 98 64 82 95 84 56 48 47 93 83 100 100 86 89 81 71 51 58 99 87 80 66 70 49 49
58 55 48 46 44 41 35 38 36 39 45 45 45 48 57 60 63 66 68 69 68 69 77 93 100 100 100 93 88 74 56 60 40 64 96 100 96 93 88 63 58 62 71 83 86 77 67 49 42
45 44 43 39 41 38 33 36 36 37 38 40 48 46 47 48 49 47 47 48 47 46 47 54 63 66 69 91 100 100 97 62 54 45 55 100 100 100 91 56 48 61 79 99 91 49 52 51 41
59 52 55 52 52 38 33 40 40 39 31 35 40 42 42 39 40 40 36 35 35 34 33 33 33 32 37 52 55 82 100 100 94 64 50 81 100 100 100 67 58 53 57 71 69 54 40 38 42
65 74 71 55 47 46 43 50 53 48 43 36 39 39 36 37 38 37 34 31 30 29 27 27 27 26 24 25 27 33 53 75 100 100 84 61 85 99 100 84 71 71 65 58 53 45 43 52 45
72 63 58 65 60 53 57 55 54 50 56 47 37 29 31 31 30 30 27 27 29 28 25 21 21 20 19 18 20 22 23 30 51 76 100 99 66 85 100 100 100 90 78 67 75 58 42 65 51
82 79 76 80 68 67 84 64 47 54 59 45 51 42 34 25 25 21 22 25 23 23 22 22 20 20 21 18 17 20 17 19 24 34 60 99 97 65 86 100 100 100 100 87 69 79 84 71 68
77 97 96 84 89 91 72 68 71 62 52 56 58 68 32 37 30 20 23 22 22 20 18 16 16 16 18 19 18 18 17 15 20 23 28 49 63 76 74 100 100 100 100 98 67 82 100 100 100
99 86 100 98 100 90 77 69 83 65 62 72 66 45 43 33 24 22 24 25 20 15 12 10 9 9 10 11 13 16 18 16 16 21 22 25 39 61 67 100 100 100 99 99 87 64 81 96 100
85 97 81 76 71 67 81 79 60 84 85 89 62 54 50 30 25 28 28 20 12 11 9 8 7 6 6 6 7 9 13 15 15 18 20 22 25 36 61 71 100 99 100 100 100 68 77 78 100
96 97 98 77 61 72 86 81 76 87 100 84 81 68 46 30 31 34 21 14 11 9 8 7 6 6 5 5 5 6 7 9 11 15 18 18 22 26 40 35 65 76 64 87 93 61 72 80 97
82 68 61 53 43 49 80 72 59 98 98 95 86 56 43 33 37 25 15 14 9 11 12 9 7 7 7 6 4 5 6 6 7 10 12 17 19 24 28 27 85 100 82 60 84 76 76 76 85
64 54 55 48 47 51 53 53 66 85 82 84 74 60 41 39 29 20 17 12 16 20 15 12 11 8 7 7 5 4 4 5 6 6 10 12 18 20 23 37 100 98 96 78 71 84 92 84 88
52 58 43 41 39 42 52 57 68 80 73 83 78 57 44 34 23 20 16 18 28 19 15 10 9 7 6 5 6 5 4 3 4 5 6 8 13 20 20 23 92 100 99 94 77 89 94 99 95
41 45 32 27 26 30 58 74 84 91 100 82 71 54 43 29 26 19 23 23 28 23 16 14 9 9 10 7 4 4 4 3 3 4 5 7 12 17 19 36 99 100 100 100 100 100 100 100 100
34 25 18 26 30 47 89 100 100 100 100 91 70 53 38 29 24 23 36 37 30 29 20 20 15 20 34 13 4 3 3 3 3 3 4 7 12 15 17 55 98 100 94 100 100 100 99 100 100
23 21 24 39 63 97 100 100 100 100 98 82 68 49 36 31 24 36 49 48 31 36 42 28 26 31 43 7 4 3 3 3 2 3 4 8 13 19 20 32 94 99 100 100 100 100 100 100 100
25 29 36 62 99 100 96 100 100 100 90 92 63 46 38 38 26 43 62 68 47 42 34 30 22 15 28 9 5 3 3 2 2 4 6 12 17 18 23 68 100 100 100 100 93 100 100 100 100

GFSSGP_250_rhum_138.txt.gz
RH
84 74 55 53 40 32 22 16 17 15 15 18 18 18 22 37 44 48 39 39 38 34 27 21 18 16 16 16 17 20 20 19 18 17 18 16 16 14 13 14 14 15 14 13 12 12 12 11 9
88 72 65 57 35 26 19 14 11 12 14 15 14 15 17 19 35 64 49 46 38 37 39 34 26 21 22 22 24 35 36 25 21 20 20 20 20 19 17 16 17 18 16 15 15 16 15 14 13
82 76 52 32 24 18 16 14 13 12 14 15 16 18 19 22 27 49 51 50 70 68 58 62 42 36 33 35 38 56 49 36 26 23 25 30 28 26 23 24 23 21 20 23 26 22 20 24 23
64 43 22 19 16 16 15 16 16 16 17 22 27 28 30 32 41 63 70 72 70 93 98 87 81 60 53 53 48 77 74 51 36 30 30 34 31 33 31 33 31 27 28 35 32 31 28 26 26
49 27 28 26 21 19 20 21 22 26 27 28 29 28 28 31 27 40 66 82 81 81 97 97 90 61 74 77 84 84 83 84 61 41 34 30 33 36 35 34 33 48 59 63 44 40 36 36 33
51 32 28 34 27 20 18 21 24 26 32 31 30 30 30 27 27 30 35 54 78 77 63 86 100 96 90 99 82 79 80 69 88 66 50 37 32 31 39 40 37 34 46 58 35 30 33 32 33
53 37 34 30 36 27 29 22 19 21 24 30 31 30 28 34 35 33 31 32 43 59 63 63 90 97 98 91 71 76 61 61 71 73 77 54 37 33 34 48 40 37 34 50 33 31 47 37 36
56 50 38 56 49 38 32 34 25 19 24 24 28 30 32 33 44 54 53 60 55 56 67 70 79 99 100 96 100 80 62 69 78 71 68 72 61 40 33 32 43 44 38 39 41 50 70 46 46
67 65 47 56 55 52 32 35 40 37 31 26 34 35 32 36 44 60 93 100 72 60 60 62 70 71 68 77 78 80 81 74 68 62 53 66 84 91 51 34 35 38 40 44 56 61 84 59 44
57 53 62 84 57 49 52 36 36 34 20 35 33 30 33 34 34 34 35 53 92 94 84 96 90 74 70 68 61 63 71 78 80 64 54 43 57 77 90 73 35 36 40 50 61 60 54 45 43
63 67 92 61 44 77 66 55 42 34 30 34 34 32 31 33 32 30 29 29 29 43 79 100 100 100 100 100 85 60 55 58 52 52 54 72 61 56 73 91 75 51 40 43 45 68 47 41 38
65 83 72 43 76 100 91 73 63 38 39 40 34 31 30 30 31 27 30 32 34 32 34 39 56 88 100 100 100 100 92 56 57 55 48 49 49 63 61 66 89 78 51 44 42 49 53 48 38
58 50 32 30 96 98 100 77 51 46 47 52 48 44 40 39 31 31 30 30 30 34 37 36 34 35 43 55 82 98 100 100 100 86 72 52 52 49 59 65 64 87 89 60 48 46 48 53 42
68 54 28 30 66 80 79 81 53 44 45 49 49 50 51 48 49 46 44 42 36 33 32 34 35 28 29 33 38 45 57 75 90 98 100 86 63 50 44 55 83 86 96 99 72 64 60 59 52
37 35 30 54 100 86 79 72 57 50 52 56 61 68 62 61 69 69 68 57 45 40 32 30 32 28 26 26 28 29 32 37 42 47 66 92 100 83 50 51 65 100 100 100 97 89 82 64 54
56 42 51 100 100 97 89 66 60 60 59 68 78 81 82 68 73 74 79 65 57 50 41 36 42 40 34 26 23 26 26 26 27 29 29 29 57 87 96 67 60 84 100 99 92 100 98 86 72
55 81 70 59 93 94 82 74 77 79 76 81 90 89 90 84 93 91 81 66 60 55 52 38 39 44 46 36 31 27 23 22 19 17 20 22 22 28 58 88 62 79 80 94 89 100 100 99 81
81 65 73 97 100 87 84 80 83 73 70 98 100 98 99 100 98 91 78 64 58 55 50 45 36 40 35 33 31 30 24 19 16 14 12 14 19 20 25 44 78 57 74 81 66 73 95 100 83
83 87 100 100 100 91 89 83 78 83 86 99 100 100 94 83 89 86 75 57 47 48 45 36 35 26 21 17 18 16 16 15 14 13 12 12 15 19 19 24 36 58 74 80 91 69 64 97 100
100 100 100 100 100 95 87 87 91 98 100 97 85 84 79 72 58 49 45 40 39 40 32 29 22 19 17 12 12 12 12 13 13 12 11 10 11 14 17 20 25 40 51 100 99 94 75 63 98
88 100 100 100 100 97 81 79 84 86 89 75 73 85 75 60 53 49 44 43 37 33 31 24 20 16 13 12 13 16 17 15 13 12 12 11 10 11 13 18 21 30 45 100 100 90 86 100 100
100 100 100 92 90 78 80 76 81 73 69 79 84 80 69 52 47 45 44 42 40 33 29 30 20 18 18 18 21 20 15 12 10 10 10 12 12 11 12 15 20 23 33 99 96 99 99 100 100
99 76 86 99 97 91 94 78 60 68 100 100 99 78 69 48 42 41 39 40 34 34 52 32 29 29 23 24 19 14 11 9 8 6 6 6 8 10 11 14 18 18 23 86 100 100 100 100 100
80 74 83 79 88 76 74 73 67 91 92 71 62 64 54 43 46 36 32 37 44 66 60 38 39 32 24 18 17 13 10 10 7 5 5 5 6 6 8 12 17 18 18 35 82 87 100 100 100
86 72 74 69 71 60 64 62 80 88 86 79 60 52 43 46 26 26 41 71 86 71 45 38 32 22 17 17 16 12 13 10 8 6 5 5 6 5 5 8 16 20 17 21 48 96 100 95 92
86 84 82 67 64 71 89 67 66 70 62 52 42 26 23 24 26 85 100 100 96 60 42 34 25 20 19 21 21 15 17 16 10 8 5 4 4 4 4 6 13 19 17 21 34 96 100 93 100
80 76 75 66 63 62 55 54 56 50 42 27 20 21 26 36 94 100 100 100 77 53 40 28 25 23 25 28 35 25 16 11 7 6 6 5 5 4 4 6 11 15 17 18 30 89 100 100 100
88 77 76 80 65 58 56 54 52 38 19 16 19 28 42 96 99 100 100 100 59 52 36 26 27 28 39 44 29 25 20 14 14 6 4 4 3 2 3 5 10 14 18 18 44 100 100 100 100
99 87 69 64 68 55 71 65 47 27 18 20 30 62 96 98 100 100 100 90 57 54 37 28 28 29 36 52 37 30 32 26 13 6 3 3 2 3 3 4 8 14 14 18 36 100 100 100 98
95 89 78 62 67 74 67 58 40 20 24 40 64 99 97 100 100 100 100 84 54 50 41 30 30 28 38 61 62 46 41 40 23 14 3 3 3 4 5 4 7 16 15 20 30 93 100 100 100